STARLINK-4401, 53483

Orbit data source: Space-Track

STARLINK-4401, 53483 is a payload satellite in SSO that was launched on Fri, 12 Aug 2022 UTC via an FALCON 9 launch vehicle from the Air Force Western Test Range (AFWTR). Payload-class satellites include a variety of spacecraft equipped with specific instruments for various scientific and technological missions. These include communications satellites like Starlink; space stations such as the ISS; scientific satellites like the Hubble; Earth observation satellites from companies like Planet Labs, Umbra, and HawkEye 360; GPS; miniature CubeSats for education and research; and military/defense satellites.

Loading next visibility...
Identifier
53483, 2022-099U
Orbit
SSO
Last TLE update
9 hours ago
Origin
Manufacturer
SpaceX/Seattle
Mission
Operational Commercial Communications
Bus & Motor
STARLINK, Unknown motor
Mass
300 kg wet, ~275 kg dry
Launch date (UTC)
2022-08-12 (3 years ago)
Launch vehicle
FALCON 9
Launch site
Air Force Western Test Range (AFWTR)
Object type
Payload
Rocket body
Debris
Shape & HBR
Box + 1 Pan, 8.86 m
Radar Cross Section
13.562 m², Large (>1 m²)

Expand to show TLE details & history

TLE from 9 hours ago
0 STARLINK-4401
1 53483U 22099U   25141.60418574  .00203572  00000-0  13618-1 0  9992
2 53483  97.6720 263.7107 0001788  87.5291 272.6140 15.05909727152159
Epoch: 2025-05-21T14:30Z
TLE epoch observation values (Epoch: 2025-05-21T14:30:01.647Z)
Latitude
-0.00009°
Longitude
166.71814°
Altitude
551.722 km
Speed
7.586 km/s
True Right ascension
17h 34m 50s
True Declination
0° 00' 00"
Sunlit
Object was in full shadow at epoch
Visualization orbit readout
Latitude
-69.96245°
Longitude
-34.45673°
Altitude
575.604 km
Speed
7.571 km/s
Apparent Right ascension
22h 30m 22s
Apparent Declination
-66° 59' 43"
Sunlit
Object is in daylight
Visualization observer readout
Local Sidereal Time
08:34:07
Azimuth
201.306° SSW
Elevation
-58.499°
Doppler factor
1
Orbital elements
Apogee altitude
546.949 km
Perigee altitude
544.473 km
Semi-major axis
6,923.848 km
Eccentricity
0.00018
Inclination
97.672°
RAAN
263.7107°
Arg. of periapsis
87.5291°
True anomaly
Unknown
Mean anomaly
272.614°
Eccentric anomaly
Unknown
Mean motion
3.76723 °/min
Orbital period
95.56 mins
BSTAR
0.013618
Loading maneuver chart data...
Loading SW <> Apogee altitude chart data...
Loading historical data...
Loading historical data...
Loading historical data...
Loading historical data...
Loading historical data...
Loading historical data...
Loading historical data...

STARLINK-4401 Visibility forecast

Observer location: undefined°, undefined°

Span
Click to sort rows by Start time (UTC) header in descending order
Start Az.
Max El. time (UTC)
Max El. Az.
Max El.
End time (UTC)
End Az.
6 mins2025-05-22 08:10:09.660Z168.404° S2025-05-22 08:13:09.660Z289.676° WNW44.918°2025-05-22 08:16:09.660Z346.49° N
6 mins2025-05-22 21:22:09.660Z351.898° N2025-05-22 21:24:09.660Z303.968° NW35.84°2025-05-22 21:28:09.660Z212.444° SW
|